Regional Weather Roundup
Issued by NWS

Home | Current Version | Previous Version | Text Only | Print | Product List | Glossary Off
Versions: 1 2 3 4 5 6 7 8 9 10 11 12 13 14 15 16 17 18 19 20 21 22 23 24 25 26 27 28 29 30 31 32 33 34 35 36 37 38 39 40 41 42 43 44 45 46 47 48 49 50

000
ASUS43 KDMX 300507
RWRIA

WEATHER ROUNDUP FOR IOWA
NATIONAL WEATHER SERVICE DES MOINES IA
1200 AM CDT SAT AUG 30 2014

NOTE: "FAIR" INDICATES FEW OR NO CLOUDS BELOW 12,000 FEET WITH NO
SIGNIFICANT WEATHER AND/OR OBSTRUCTIONS TO VISIBILITY.

* - THESE STATIONS ARE NOT NWS STATIONS...THUS NOT UNDER NWS
QUALITY CONTROL.  THEY ALSO DO NOT REPORT WEATHER SUCH
AS PRECIPITATION OR FOG.

IAZ001>003-012>014-020>022-031>034-043>046-300600-
   NORTHWEST IOWA

CITY           SKY/WX    TMP DP  RH WIND       PRES   REMARKS
CARROLL *      CLOUDY    66  66 100 CALM      29.81F
CHEROKEE *     MOCLDY    64  64 100 CALM      29.82S FOG
DENISON *      MOCLDY    64  64 100 CALM      29.81S
LE MARS *        N/A     64  64 100 CALM      29.84S
ORANGE CITY *  PTCLDY    64  63  94 W6        29.84R
SHELDON *      MOCLDY    63  63 100 W3        29.82S
SIOUX CITY     PTCLDY    66  65  96 CALM      29.83R
SPENCER        CLOUDY    66  64  93 NW6       29.81F
STORM LAKE *   CLOUDY    66  66 100 CALM      29.82S FOG
$$

IAZ055>058-069>071-079>083-090>094-300600-
   SOUTHWEST IOWA

CITY           SKY/WX    TMP DP  RH WIND       PRES   REMARKS
ATLANTIC *     CLOUDY    68  66  94 S5        29.84R
AUDUBON *      DRIZZLE   68  66  94 NW5       29.84R
CLARINDA *     PTCLDY    66  66 100 W3        29.86R
COUNCIL BLFS * CLEAR     66  66 100 W3        29.82F
CRESTON *      PTCLDY    66  66 100 CALM      29.86R
HARLAN  *      MOCLDY    66  66 100 CALM      29.86F
LAMONI         LGT RAIN  66  64  93 E3        29.84F
RED OAK *      CLEAR     66  64  94 CALM      29.85R
SHENANDOAH *   CLEAR     66  64  94 CALM      29.85S
$$

IAZ047>049-059>061-072>074-084-300600-
   CENTRAL IOWA

CITY           SKY/WX    TMP DP  RH WIND       PRES   REMARKS
AMES           CLOUDY    67  66  97 SW8       29.80R
ANKENY *       MOCLDY    68  66  94 SW6       29.80S
CHARITON *     LGT RAIN  66  64  94 SW12G20   29.84R
DES MOINES     LGT RAIN  70  67  90 SW9       29.81R
GRINNELL*      CLOUDY    68  66  94 S6        29.82R FOG
KNOXVILLE *    LGT RAIN  70  68  94 SW9       29.82R
MARSHALLTOWN   CLOUDY    69  67  93 SW9       29.78S
PELLA *        MOCLDY    70  68  94 SW5       29.82F
PERRY *        LGT RAIN  66  66 100 SW6       29.81R
$$

IAZ004>006-015-016-023>025-035-036-300600-
   NORTH CENTRAL IOWA

CITY           SKY/WX    TMP DP  RH WIND       PRES   REMARKS
ALGONA *       CLOUDY    68  68 100 NW7       29.79S
CLARION *      CLOUDY    68  68 100 SW5       29.78S
ESTHERVILLE    CLOUDY    66  66 100 NW3       29.79F
FORT DODGE *   CLOUDY    66  64  94 SW3       29.80R
MASON CITY     CLOUDY    66  66 100 CALM      29.79S
FOREST CITY *    N/A     64  64 100 SW3       29.78S
IOWA FALLS *   CLOUDY    68  66  94 S5        29.79S
$$

IAZ007>011-017>019-026>030-037>042-050>054-066-300600-
   NORTHEAST IOWA

CITY           SKY/WX    TMP DP  RH WIND       PRES   REMARKS
CEDAR RAPIDS   CLOUDY    70  70 100 S7        29.80R FOG
CHARLES CITY * CLOUDY    68  68 100 S6        29.78S FOG
CLINTON *      CLOUDY    72  66  83 S12       29.84S
DECORAH *      LGT RAIN  68  68 100 CALM      29.78R
DUBUQUE        LGT RAIN  71  69  93 S13       29.81S
MONTICELLO *   CLOUDY    72  70  94 S9        29.80S
OELWEIN *      CLOUDY    68  66  94 S5        29.80F FOG
WATERLOO       CLOUDY    68  66  93 S6        29.78S
$$

IAZ064-065-067-068-078-300600-
   EAST CENTRAL IOWA

CITY           SKY/WX    TMP DP  RH WIND       PRES   REMARKS
DAVENPORT      CLOUDY    71  68  90 S14       29.83R
IOWA CITY      MOCLDY    71  70  96 S7        29.82R
MT. PLEASANT * MOCLDY    72  70  94 S6        29.84R FOG
MUSCATINE *    CLEAR     72  70  94 S8        29.82S
QUAD CITIES    CLOUDY    71  68  90 S8        29.82S
$$

IAZ062-063-075>077-085>089-095>099-300600-
   SOUTHEAST IOWA

CITY           SKY/WX    TMP DP  RH WIND       PRES   REMARKS
BURLINGTON     PTCLDY    71  70  96 SW8       29.84R
FAIRFIELD *    PTCLDY    72  70  94 S7        29.83S
FORT MADISON * PTCLDY    73  73 100 S8        29.85R
KEOKUK *       CLEAR     72  72 100 SW7       29.84R
OSKALOOSA *      N/A     70  70 100 S5        29.82S FOG
CENTERVILLE *  LGT RAIN  68  68 100 W16G23    29.88R
OTTUMWA        PTCLDY    69  68  96 S6        29.82S
WASHINGTON *   CLEAR     72  72 100 S9        29.82R FOG
$$

ABBREVIATIONS USED IN REMARKS
   TC - TEMPERATURES IN CELSIUS
  WCI - WIND CHILL INDEX
   HX - HEAT INDEX
  VSB - VISIBILITY
$$



USA.gov is the U.S. government's official web portal to all federal, state and local government web resources and services.